Cloud_Cover
0 21 93 100 100 100 100 100 52 5 5 43 96 100 100 100 100 90 97 99 79 17 94 0 0 5 5 9 97 12 76 100 86 76 96 74 100 89 86 85 7 7 71 5
0 2 92 65 100 100 99 100 88 6 1 19 42 100 100 100 100 100 99 60 100 71 96 18 4 0 5 5 5 91 41 62 80 100 100 100 100 100 100 100 16 95 100 52
0 55 47 4 4 18 92 99 96 40 0 0 4 99 89 45 100 100 77 63 68 40 100 34 14 0 0 5 5 37 32 10 33 92 100 100 100 100 97 61 28 62 96 95
0 37 0 0 1 5 88 28 2 4 4 100 41 26 100 30 18 100 100 70 84 66 39 100 21 6 0 0 5 16 88 20 5 5 100 100 64 97 51 36 100 6 9 20
0 0 0 0 1 7 88 5 10 16 5 100 62 62 100 93 43 6 100 74 40 87 90 100 100 20 24 2 0 21 5 89 10 5 5 6 48 26 97 59 62 21 20 7
0 0 0 0 0 4 52 1 5 4 5 90 99 5 55 100 100 10 79 88 89 100 100 99 100 100 9 10 6 4 5 5 5 5 5 5 68 78 56 98 79 83 75 0
0 0 0 0 0 0 0 4 62 87 93 98 90 15 100 60 86 17 32 18 68 100 100 100 100 100 100 91 2 20 1 4 5 5 12 21 5 16 86 97 67 52 6 89
0 0 0 0 2 66 0 30 100 100 100 100 92 99 76 86 72 0 0 0 2 10 100 100 100 100 100 94 100 0 0 0 0 3 5 5 5 5 6 99 100 51 100 15
5 29 0 0 0 1 41 21 27 83 53 45 33 68 7 13 5 5 6 0 0 0 10 100 100 100 100 98 88 100 71 2 0 0 0 4 3 5 9 100 37 100 81 100
43 86 0 0 0 0 0 88 48 35 38 26 100 13 56 41 14 92 86 3 0 0 0 7 99 100 100 88 100 100 100 100 3 0 0 0 4 2 4 29 100 94 78 26
6 23 73 2 1 52 6 0 1 24 86 100 95 93 43 37 8 47 88 1 0 0 0 0 44 20 100 100 45 100 94 100 98 0 1 0 9 24 0 2 2 5 0 77
0 36 90 100 9 0 0 14 44 100 98 82 91 100 6 0 0 0 1 0 0 0 0 0 0 22 17 68 100 100 85 99 100 91 2 0 22 21 28 2 2 26 5 30
11 4 60 100 100 31 0 2 5 26 100 99 92 100 58 4 5 1 0 0 0 0 0 0 0 0 5 91 100 100 100 96 100 100 23 74 4 11 63 30 0 20 4 1
89 5 49 100 88 58 82 98 26 5 89 100 100 100 42 100 100 96 3 0 0 0 0 0 0 0 0 5 51 100 100 100 99 100 84 90 1 0 78 56 46 10 6 1
100 58 73 70 82 89 30 46 48 17 5 6 4 15 15 28 40 28 11 0 0 0 0 0 0 2 24 51 43 79 100 100 100 100 100 16 0 0 0 16 2 18 24 5
76 100 55 100 88 8 5 5 5 5 5 3 0 3 5 5 2 0 0 0 0 0 0 0 1 11 77 100 100 100 100 100 93 100 100 88 100 45 0 0 5 0 0 2
6 88 99 100 99 98 100 48 41 23 7 5 5 5 68 54 2 2 5 7 16 0 7 28 31 10 22 26 12 96 86 100 60 99 95 100 100 14 89 11 0 12 11 11
58 46 91 100 84 97 98 97 30 2 1 0 0 3 3 2 4 0 5 11 54 42 27 30 32 99 90 81 92 91 53 57 100 98 20 100 100 100 100 87 99 100 100 98
100 100 100 100 100 100 87 83 85 50 2 4 5 5 5 1 0 0 3 0 14 16 2 29 94 81 61 46 33 99 61 43 93 100 100 100 100 99 100 100 100 100 100 100
99 100 82 100 100 100 94 81 4 0 0 4 2 0 0 3 7 51 7 11 2 13 100 97 25 0 84 67 96 79 97 80 49 100 100 100 100 100 100 100 100 93 100 100
100 99 100 100 100 100 100 4 0 1 37 0 0 0 0 3 14 1 16 32 55 94 63 0 0 4 74 92 94 73 98 100 98 100 100 100 100 100 100 100 100 100 100 100
100 100 93 77 89 100 59 5 5 1 0 0 0 0 0 0 2 40 75 67 97 70 17 62 60 67 91 86 76 100 100 99 98 100 100 100 100 100 100 100 100 100 100 100
100 100 98 100 99 100 80 4 4 0 0 0 0 0 0 0 29 99 96 59 90 100 100 82 46 51 45 33 56 100 100 100 100 81 100 100 100 100 100 100 100 100 100 100
100 97 61 97 100 100 13 4 0 0 0 0 0 0 48 1 40 87 48 79 88 88 96 43 19 61 100 65 93 100 100 100 100 100 100 100 100 100 100 100 100 100 100 100
100 100 5 81 100 100 22 5 0 0 0 0 0 28 51 3 66 94 89 73 35 56 100 100 100 100 100 100 99 100 100 100 100 100 100 100 100 100 100 100 100 100 100 100
100 100 75 95 100 100 52 5 0 0 0 0 0 3 2 11 24 100 80 100 100 94 100 100 100 100 100 100 100 100 100 100 100 100 100 100 100 100 100 100 100 100 100 100